Flag for China Weather past 2 weeks in Kunming, Yunnan, China

Now
64 °F

Passing clouds.


Feels Like: 64 °F
Forecast: 61 / 73 °F
Wind: 3 mph from South

Location: Kunming Airport

Current Time: Sep 4, 2015 at 3:32:55 AM

Latest Report: Sep 4, 2015 at 3:00 AM


Visibility: 4 mi

Pressure: 30.18 "Hg (24.12 "Hg at 1909m altitude)

Humidity: 94%

Dew point: 63 °F

Location of KunmingLocation

Historic Weather in Kunming — Graph

°F

Kunming temperature yesterday

Maximum temperature yesterday: 77 °F (at 4:00 PM)
Minimum temperature yesterday: 61 °F (at 5:00 AM)
Average temperature yesterday: 68 °F

Past Weeks' High & Low Weather Summary

 TemperatureHumidityPressure
High77 °F (Sep 3, 4:00 PM)100% (Aug 24, 12:00 AM)30.30 "Hg (Aug 24, 12:00 AM)
Low54 °F (Aug 22, 7:00 AM)34% (Aug 21, 4:00 PM)29.98 "Hg (Aug 24, 7:00 PM)
Average63 °F83%30.13 "Hg
* Reported Aug 20 2:00 AM — Sep 4 2:00 AM, Kunming, Weather by CustomWeather, © 2015

Note: Actual official high and low records may vary slightly from our data, if they occured in-between our weather recording intervals... More about our weather records

Advertising

Kunming weather history for previous 24 hours

 ConditionsComfort  
Time TempWeatherWind HumidityBarometerVisibility
2:00 AM
Fri, Sep 4
64 °FPassing clouds.3 mph94%30.18 "Hg4 mi
1:00 AM66 °FPassing clouds.3 mph88%30.21 "HgN/A
12:00 AM64 °FOvercast.10 mph88%30.21 "HgN/A
11:00 PM
Thu, Sep 3
66 °FPassing clouds.8 mph83%30.21 "HgN/A
10:00 PM66 °FPassing clouds.3 mph83%30.21 "HgN/A
9:00 PM66 °FPassing clouds.3 mph83%30.18 "HgN/A
8:00 PM70 °FPassing clouds.6 mph73%30.15 "HgN/A
7:00 PM73 °FPassing clouds.10 mph57%30.12 "HgN/A
6:00 PM75 °FPassing clouds.6 mph50%30.09 "HgN/A
5:00 PM75 °FScattered clouds.6 mph54%30.09 "HgN/A
4:00 PM77 °FScattered clouds.8 mph54%30.12 "HgN/A
3:00 PM75 °FScattered clouds.6 mph57%30.15 "HgN/A
2:00 PM73 °FScattered clouds.8 mph65%30.18 "HgN/A
1:00 PM72 °FScattered clouds.10 mph69%30.21 "HgN/A
12:00 PM70 °FBroken clouds.8 mph69%30.21 "HgN/A
11:00 AM70 °FBroken clouds.1 mph69%30.24 "HgN/A
10:00 AM68 °FBroken clouds.1 mph78%30.24 "Hg5 mi
9:00 AM64 °FFog.3 mph83%30.21 "Hg3 mi
8:00 AM63 °FFog.3 mph88%30.21 "Hg3 mi
7:00 AM61 °FFog.No wind94%30.18 "Hg3 mi
6:00 AM61 °FMostly cloudy.3 mph94%30.18 "Hg4 mi
5:00 AM61 °FMostly cloudy.3 mph94%30.18 "Hg4 mi
4:00 AM63 °FMostly cloudy.1 mph88%30.18 "Hg4 mi
3:00 AM63 °FMostly cloudy.3 mph88%30.18 "Hg4 mi
Weather by CustomWeather, © 2015

See weather overviewHow to use our weather pages